Location: Kershaw
(34.5481°N, 80.5823°W)
Time: 11:13:37
(UTC+00:00)

Altair - Pass Details

Date: 10 October 2022
Orbit: 1501 x 1682 km, 47.2° (Epoch: 30 November)

Event Time Altitude Azimuth Distance (km) Brightness Sun altitude
Rises 05:24:51 0° 183° (S) 4,644 - -61.9°
Reaches altitude 10° 05:28:55 10° 167° (SSE) 3,687 - -61.7°
Maximum altitude 05:35:08 20° 124° (SE) 3,011 - -61.5°
Drops below altitude 10° 05:41:28 10° 82° (E) 3,786 - -61.1°
Exits shadow 05:43:27 - 74° (ENE) 4,241 10.0 -61.0°
Sets 05:45:40 0° 67° (ENE) 4,808 10.4 -60.9°
